Location: Oshawa
(43.9000°N, 78.8670°W)
Time: 12:42:20
(UTC-05:00)

Cosmos 1821 Rocket - Visible Passes

Search period start: 23 January 2018 00:00
Search period end: 02 February 2018 00:00
Orbit: 944 x 1005 km, 82.9° (Epoch: 22 January)

Date Brightness Start Highest point End Pass type
(mag) Time Alt. Az. Time Alt. Az. Time Alt. Az.
23 Jan 4.0 18:42:42 10° N 18:48:47 57° ENE 18:54:55 10° SSE visible
23 Jan 6.1 20:29:02 10° NW 20:33:40 23° W 20:38:21 10° SW visible
24 Jan 6.7 06:31:27 10° ESE 06:35:13 17° E 06:38:58 10° NE visible
24 Jan 4.0 19:07:54 10° N 19:14:06 83° W 19:20:22 10° S visible
24 Jan 6.8 20:56:08 10° NW 20:58:27 12° WNW 21:00:47 10° W visible
25 Jan 6.0 06:54:51 10° SE 07:00:04 31° E 07:05:18 10° NNE visible
25 Jan 4.8 17:48:24 10° NNE 17:53:41 28° ENE 17:58:58 10° SE visible
25 Jan 4.9 19:33:23 10° NNW 19:39:15 47° W 19:45:12 10° SSW visible
26 Jan 4.2 18:13:13 10° N 18:19:13 49° ENE 18:25:15 10° SSE visible
26 Jan 6.0 19:59:13 10° NNW 20:04:16 27° W 20:09:20 10° SW visible
27 Jan 6.8 06:02:43 10° ESE 06:05:49 14° E 06:08:55 10° NE visible
27 Jan 3.9 18:38:21 10° N 18:44:35 85° E 18:50:52 10° S visible
27 Jan 6.7 20:25:49 10° NW 20:29:05 15° W 20:32:22 10° WSW visible
28 Jan 6.2 06:25:43 10° SE 06:30:38 26° E 06:35:34 10° NNE visible
28 Jan 4.7 19:03:45 10° NNW 19:09:47 55° W 19:15:53 10° SSW visible
29 Jan 5.2 06:49:51 10° SSE 06:55:37 47° E 07:01:25 10° NNE visible
29 Jan 4.4 17:43:46 10° N 17:49:38 42° ENE 17:55:33 10° SE visible
29 Jan 5.8 19:29:28 10° NNW 19:34:50 31° W 19:40:14 10° SW visible
30 Jan 7.0 05:34:17 10° E 05:36:26 12° ENE 05:38:34 10° ENE visible
30 Jan 4.0 18:08:49 10° N 18:15:03 74° E 18:21:21 10° SSE visible
30 Jan 6.6 19:55:46 10° NW 19:59:42 18° W 20:03:40 10° WSW visible
31 Jan 6.4 05:56:39 10° SE 06:01:12 23° E 06:05:46 10° NE visible
31 Jan 4.5 18:34:09 10° NNW 18:40:17 65° W 18:46:31 10° S visible
01 Feb 5.4 06:20:33 10° SSE 06:26:08 40° E 06:31:45 10° NNE visible
01 Feb 5.6 18:59:45 10° NNW 19:05:23 37° W 19:11:04 10° SSW visible
